STARLINK-36950

Last updated on Mon Mar 30 2026 00:02:05 GMT+0000 (Coordinated Universal Time)

1 67992U 26039G 26087.30276449 -.00093198 00000+0 -16885-2 0 9992 2 67992 42.9996 304.3842 0002814 322.3667 37.6995 15.49089084 4542
UTC large
Height (km)
Speed (km/s)
/
Latitude / Longitude
Inclination (degrees)
Orbital Period (minutes)
Azimuth
Elevation
Range (km)
Doppler Factor

Next 0 passes for location: London (51.5072 / 0.1276)

Sorry there are no passes over London.